Regional Weather Roundup
Issued by NWS Mt. Holly, NJ

Home | Current Version | Previous Version | Text Only | Print | Product List | Glossary On
Versions: 1 2 3 4 5 6 7 8 9 10 11 12 13 14 15 16 17 18 19 20 21 22 23 24 25 26 27 28 29 30 31 32 33 34 35 36 37 38 39 40 41 42 43 44 45 46 47 48 49
000
ASUS41 KPHI 200310
RWRPHI

REGIONAL WEATHER ROUNDUP
NATIONAL WEATHER SERVICE MOUNT HOLLY NJ
1000 PM EST FRI DEC 19 2014

NOTE:  "FAIR" INDICATES FEW OR NO CLOUDS BELOW 12,000 FEET WITH NO
SIGNIFICANT WEATHER AND/OR OBSTRUCTIONS TO VISIBILITY.

 * = STATION DOES NOT REPORT PRECIPITATION (E.G. RAIN, SNOW, ETC.)
        OR FOG.

NJZ015>026-200400-
SOUTHERN NEW JERSEY

CITY           SKY/WX    TMP DP  RH WIND       PRES   REMARKS
POMONA         CLEAR     27  20  75 NW5       30.19R WCI  22
RIO GRANDE*    CLEAR     34  21  60 N7        30.19R WCI  28
MILLVILLE      CLEAR     24  20  84 CALM      30.20R
WRIGHTSTOWN    CLOUDY    30  21  68 NW8       30.16S WCI  23
MOUNT HOLLY    PTCLDY    30  20  66 NW6       30.20S WCI  24
TRENTON        MOCLDY    31  19  61 N6        30.18R WCI  25

$$
NJZ001>014-200400-
NORTHERN NEW JERSEY

CITY           SKY/WX    TMP DP  RH WIND       PRES   REMARKS
SUSSEX         CLOUDY    30  20  66 CALM      30.16R
ANDOVER*         N/A     28  20  71 N3        30.16R
MORRISTOWN     CLOUDY    34  21  60 N6        30.18R WCI  29
NEWARK         MOCLDY    32  21  64 NW10      30.18R WCI  24
TETERBORO      CLEAR     32  21  64 NW6       30.17R WCI  26
CALDWELL       CLOUDY    31  20  63 NW7       30.18R WCI  24
SOMERVILLE     CLOUDY    33  20  58 VRB7      30.16R WCI  27
ALLAIRE*       CLOUDY    30  18  59 NW6       30.16S WCI  24
TOMS RIVER*    CLOUDY    30  21  69 NW5       30.18S WCI  25

$$
PAZ043-044-047-054-055-060>062-066>071-200400-
EASTERN PENNSYLVANIA

CITY           SKY/WX    TMP DP  RH WIND       PRES   REMARKS
PHILADELPHIA   MOCLDY    34  21  59 N7        30.22R WCI  28
NORTH PHILA    MOCLDY    32  19  58 NW6       30.21S WCI  26
BLUE BELL      CLOUDY    34  23  64 NW3       30.19R
DOYLESTOWN     CLOUDY    30  21  69 NW7       30.18R WCI  23
QUAKERTOWN*    CLOUDY    32  21  64 NW8       30.18S WCI  25
POTTSTOWN      CLOUDY    32  21  64 NW8       30.20S WCI  25
LANCASTER      MOCLDY    29  21  72 W6        30.20S WCI  23
COATESVILLE    CLOUDY    32  25  74 NW8       30.19R WCI  25
READING        CLOUDY    34  21  59 NW9       30.20R WCI  27
ALLENTOWN      CLOUDY    34  21  60 NW9       30.19R WCI  26
MOUNT POCONO   CLOUDY    24  19  81 NW16G23   30.08R WCI  11
HAZLETON       CLOUDY    28  21  74 NW13      30.16R WCI  18
WILKES BARRE   CLOUDY    29  21  72 NW9       30.17R WCI  20

$$
DEZALL-MDZ008-012-015-019-020-200400-
DELAWARE AND EASTERN MARYLAND

CITY           SKY/WX    TMP DP  RH WIND       PRES   REMARKS
WILMINGTON     CLEAR     28  20  71 NW6       30.21R WCI  22
DOVER          CLEAR     32  23  68 W7        30.19R WCI  26
GEORGETOWN     CLEAR     31  23  72 W3        30.22R
EASTON         CLEAR     34  28  77 N5        30.27R WCI  30
PATUXENT       CLEAR     33  23  66 NW9       30.24R WCI  25
OCEAN CITY     CLEAR     29  23  78 NW5       30.21R WCI  24
WALLOPS ISLAND CLEAR     30  25  81 NW3       30.22S
CAMBRIDGE      CLEAR     37  27  65 NW9       30.22R WCI  31
SALISBURY      CLEAR     34  24  67 NW3       30.21R

$$
PAZ001-021-NYZ056-072-MDZ011-DCZ001-200400-
OTHER NEARBY LOCATIONS

CITY           SKY/WX    TMP DP  RH WIND       PRES   REMARKS
HARRISBURG     MOCLDY    31  22  69 NW9       30.22R WCI  23
STATE COLLEGE  CLEAR     28  19  68 NW9       30.22R WCI  19
WILLIAMSPORT   CLOUDY    33  19  56 NW10      30.22R WCI  25
BINGHAMTON     CLOUDY    23  19  85 NW7       30.14R WCI  15
NEW YORK CITY  CLEAR     32  20  61 NW9       30.18R WCI  24
BALTIMORE      CLEAR     30  21  69 W3        30.24R
WASHINGTON DC  CLEAR     36  22  56 NW10      30.27R WCI  28

$$


USA.gov is the U.S. government's official web portal to all federal, state and local government web resources and services.